Wind_Speed
30 27 21 18 18 17 15 12 11 11 9 10 10 11 11 9 8 7 6 4 2 1 3 5 7 9 11 12 14 16 18 19 20 20 21 21 20 20 20 19 17 16 14 11
27 22 20 19 18 17 13 11 10 11 10 10 11 11 11 9 8 7 5 4 3 1 2 4 6 8 10 12 14 16 17 18 19 20 21 21 21 21 21 20 19 17 14 12
22 19 19 18 16 14 12 11 11 12 11 11 12 11 11 9 8 7 6 5 4 2 2 3 5 7 9 11 14 16 17 18 19 20 21 22 22 22 22 21 20 18 16 14
21 20 18 17 15 14 13 13 12 13 12 12 12 11 11 10 8 8 7 6 4 3 2 2 4 6 8 10 13 15 16 17 19 20 21 21 22 22 22 22 21 19 17 15
19 18 16 15 14 14 14 14 14 14 13 12 11 11 10 10 9 8 8 7 5 4 2 2 3 5 7 10 12 14 16 17 18 19 20 21 22 22 22 22 21 20 19 17
18 17 16 15 15 15 15 15 15 15 13 12 11 11 9 10 9 9 8 7 6 5 3 2 2 4 7 9 11 13 15 17 18 19 20 21 21 22 22 22 21 20 19 18
17 16 16 15 15 15 15 15 15 15 13 12 12 11 10 10 10 9 9 8 7 6 4 2 1 3 6 8 10 12 14 16 18 19 20 20 21 21 22 22 22 21 20 19
16 16 15 14 14 15 15 15 16 15 14 12 11 10 10 11 10 10 10 9 8 6 4 2 0 3 6 8 10 12 14 16 17 19 20 20 20 21 21 21 21 21 20 20
15 14 14 14 14 15 15 16 16 16 15 14 12 10 11 12 12 11 11 10 8 7 5 3 1 3 5 8 10 12 14 15 17 18 19 20 20 20 20 21 21 20 20 20
14 14 14 14 14 14 14 14 15 16 17 15 13 12 12 13 13 13 12 11 9 7 6 4 2 3 5 8 10 12 14 15 17 18 19 19 20 20 20 20 20 20 20 20
12 13 13 14 14 13 14 14 15 16 16 16 14 12 13 14 14 14 13 12 10 8 7 5 3 4 6 8 10 12 13 15 16 17 18 19 19 20 20 20 20 20 20 19
12 13 13 14 14 15 15 15 15 16 16 16 14 11 14 15 15 15 14 13 11 9 8 6 5 5 7 9 10 12 13 15 16 17 18 18 19 20 20 20 20 19 19 19
13 14 15 15 16 16 17 17 17 17 17 16 14 12 15 15 15 15 15 14 12 10 9 7 6 7 8 9 10 12 13 15 16 17 17 18 19 19 19 20 20 20 19 19
16 16 16 16 17 18 18 18 19 19 18 16 14 13 15 16 16 16 16 15 13 12 10 9 8 8 8 9 11 12 13 15 16 17 17 18 19 19 19 19 20 20 20 19
16 17 17 17 19 19 19 19 19 19 17 16 14 14 15 17 17 17 17 16 14 13 12 10 9 9 10 10 11 12 13 15 16 17 17 18 18 19 19 19 20 20 20 20
16 17 17 18 19 20 19 17 19 18 17 16 15 14 16 18 18 18 17 16 15 14 13 12 11 11 11 11 11 13 14 15 16 16 17 18 18 19 19 19 20 20 21 21
17 17 18 17 19 19 16 16 18 18 17 16 15 15 18 18 18 18 18 17 16 15 14 13 13 12 12 12 12 13 14 14 15 16 17 18 18 19 20 20 20 20 21 21
18 19 19 19 19 17 14 16 17 17 16 16 15 16 17 18 19 19 19 18 17 17 16 15 14 13 13 13 13 14 14 14 15 16 17 18 19 19 20 21 21 21 21 21
19 20 20 19 18 15 14 16 17 16 15 16 16 17 18 19 19 19 19 19 18 18 17 16 15 15 14 14 14 14 14 15 15 16 17 18 19 20 21 22 22 22 22 22
21 22 21 20 19 15 14 17 17 16 14 17 18 18 18 19 18 19 21 20 19 18 18 17 17 16 16 15 15 15 15 15 16 16 17 18 19 21 22 23 23 23 23 22
24 24 24 22 21 17 17 19 18 17 16 19 19 19 19 19 20 21 21 21 20 20 19 19 18 18 17 17 16 16 16 16 16 17 18 19 20 21 23 24 24 23 23 23
27 27 26 26 24 20 20 20 21 20 21 21 21 21 21 21 22 22 22 22 22 22 21 21 20 19 18 18 17 17 17 17 17 18 19 20 21 22 23 24 24 24 24 24
31 30 30 29 27 25 25 25 25 24 23 23 23 23 22 22 23 23 23 23 23 23 22 22 21 20 20 19 19 18 18 18 18 19 20 21 22 23 24 25 25 25 25 25
35 35 35 33 31 30 29 29 29 28 27 26 25 25 25 24 24 24 25 25 24 24 24 23 23 22 22 21 20 20 20 19 20 21 22 23 23 24 25 26 26 26 26 26
38 39 39 38 35 35 34 33 33 32 31 30 29 28 27 27 26 26 26 26 26 26 25 25 24 24 23 23 22 22 21 21 21 22 23 24 25 26 27 27 28 28 27 27
41 42 43 42 40 41 39 37 37 36 35 34 33 32 31 30 29 29 29 28 28 27 27 26 26 26 25 25 24 24 23 23 23 24 24 25 26 27 28 29 29 29 29 28
Wind_Direction
212 215 218 221 227 235 243 248 253 260 263 268 275 276 276 274 264 259 261 262 259 68 53 45 38 32 28 25 23 21 19 17 15 13 10 9 7 6 3 0 357 351 344 336
209 210 211 216 223 232 241 246 252 255 257 266 269 270 268 266 254 247 246 243 227 166 88 60 45 35 30 27 25 23 20 18 16 15 13 12 11 9 8 6 4 1 356 349
206 206 211 217 223 232 239 245 251 259 262 267 269 266 264 255 246 238 232 231 220 177 116 71 49 36 30 27 26 22 19 18 16 15 14 14 13 12 11 10 9 7 6 1
201 204 210 216 224 233 238 246 254 262 263 266 269 261 255 250 242 231 227 226 213 183 143 85 54 38 31 27 25 21 18 17 16 15 14 13 13 13 12 11 10 10 8 6
200 204 209 215 223 229 237 246 254 262 265 267 267 260 250 246 236 226 224 219 208 192 166 108 61 42 32 27 23 19 16 15 14 13 13 13 12 12 12 12 11 11 10 7
198 203 208 214 221 230 238 247 255 261 264 263 264 261 253 244 232 225 220 214 206 198 182 137 68 41 30 24 19 15 13 12 11 10 10 10 10 10 11 11 11 10 9 8
198 204 209 216 224 232 240 249 256 258 262 264 263 259 253 245 238 228 220 212 205 200 192 167 69 33 24 18 13 10 9 8 8 7 7 7 7 7 8 9 9 9 9 8
205 207 212 219 228 238 245 252 256 261 263 265 261 258 250 245 240 229 219 213 208 205 200 192 58 22 16 11 7 5 5 4 4 4 5 5 5 5 5 6 8 8 8 8
202 207 214 223 235 243 248 253 258 262 266 266 262 257 247 242 236 228 220 214 212 210 208 209 268 359 2 2 0 359 359 359 360 1 2 3 3 3 3 4 5 7 7 8
201 210 221 230 241 249 255 257 260 265 268 268 262 254 244 237 232 226 221 218 218 216 217 226 272 333 348 351 352 354 355 355 356 357 358 0 1 1 2 2 3 4 5 7
212 221 230 239 248 256 259 262 264 266 269 269 262 250 241 236 228 224 221 220 221 223 226 240 273 314 333 341 346 348 350 351 352 353 355 357 359 360 0 1 2 3 4 5
225 233 241 249 253 257 262 265 266 268 268 267 261 245 238 234 225 223 222 223 225 228 234 248 271 301 322 332 338 341 344 345 347 349 351 354 356 357 358 360 0 1 1 2
242 247 251 253 256 259 264 266 267 266 265 264 259 245 235 233 226 223 225 227 229 233 240 251 270 293 312 323 330 335 338 341 344 346 348 350 352 354 355 357 357 358 358 358
254 258 259 259 260 260 264 266 266 266 264 261 253 242 234 230 226 224 226 229 232 237 243 253 269 286 303 315 323 330 335 338 342 345 346 348 350 352 352 354 354 354 354 354
260 261 262 263 264 264 264 264 264 263 261 258 249 240 232 230 227 226 228 231 234 238 246 255 267 283 296 307 317 325 331 336 340 343 346 347 349 350 351 351 352 352 352 351
267 268 267 266 266 266 266 265 263 259 256 254 245 236 232 230 229 229 231 234 236 240 247 256 266 279 290 300 310 319 326 332 336 340 343 345 347 348 349 349 349 349 349 348
271 273 273 270 268 269 268 263 260 256 254 253 244 235 233 231 230 230 233 236 239 243 248 255 265 276 285 294 304 314 322 327 332 337 340 342 343 344 345 346 346 347 347 346
273 273 274 273 270 269 267 260 259 256 253 251 244 239 237 235 234 234 237 239 242 245 249 256 264 273 281 290 299 308 315 322 328 332 336 338 341 342 343 343 343 343 344 343
273 274 274 274 272 270 265 261 258 256 250 249 244 240 239 239 239 240 241 242 244 247 252 258 265 271 279 286 294 302 309 315 322 327 331 333 337 339 340 341 340 340 340 340
270 271 272 273 272 267 261 261 260 257 250 248 246 242 242 241 242 241 242 244 246 249 254 260 265 270 276 282 290 296 302 309 315 321 325 329 332 334 336 337 338 338 337 336
266 267 268 269 269 265 260 260 258 256 250 247 248 247 247 246 244 243 245 246 248 251 255 260 264 268 273 279 285 290 296 303 309 315 320 324 327 329 332 334 334 335 334 333
265 264 265 266 266 264 259 258 256 254 251 250 249 249 250 249 247 247 248 248 250 252 256 259 263 267 271 276 281 285 291 298 303 309 315 319 323 326 328 329 330 330 330 330
262 262 262 262 263 261 258 256 254 253 251 251 251 250 249 249 249 249 249 250 252 254 257 259 262 265 269 273 277 281 287 293 299 305 310 314 319 322 325 326 327 326 326 326
259 259 259 259 259 257 256 255 254 253 251 250 250 250 249 249 248 249 250 251 253 255 257 259 261 264 268 271 274 278 283 288 294 300 306 311 315 318 321 322 324 324 323 322
259 258 258 258 257 255 254 254 253 252 252 250 250 250 250 250 250 250 251 252 254 255 257 259 260 263 266 268 271 275 279 284 291 297 303 308 312 314 317 319 320 321 320 319
259 259 258 257 254 253 251 251 252 252 251 250 249 249 250 250 250 250 251 252 253 254 256 258 259 262 264 266 269 273 277 282 288 294 299 304 308 311 313 315 316 317 317 316
Height
5821 5829 5835 5840 5843 5846 5847 5849 5850 5851 5852 5852 5852 5852 5852 5851 5850 5850 5849 5848 5847 5847 5846 5845 5843 5841 5840 5837 5835 5831 5828 5824 5821 5817 5813 5809 5804 5800 5796 5792 5788 5784 5781 5778
5822 5828 5834 5837 5840 5843 5845 5847 5848 5849 5849 5850 5849 5849 5849 5849 5848 5848 5848 5847 5846 5846 5845 5844 5842 5841 5839 5837 5834 5831 5828 5825 5821 5817 5813 5809 5805 5800 5796 5791 5787 5783 5780 5777
5822 5828 5831 5835 5838 5841 5843 5845 5846 5847 5847 5847 5847 5848 5847 5847 5846 5846 5846 5846 5845 5845 5844 5843 5842 5841 5839 5837 5834 5831 5828 5825 5822 5818 5814 5810 5805 5801 5796 5792 5788 5784 5780 5777
5821 5825 5830 5834 5837 5840 5841 5843 5844 5844 5844 5845 5845 5845 5845 5844 5844 5844 5845 5845 5844 5844 5843 5842 5841 5840 5839 5836 5834 5831 5829 5826 5822 5819 5815 5811 5806 5802 5797 5793 5789 5785 5781 5778
5821 5824 5828 5832 5835 5837 5839 5840 5841 5841 5842 5842 5842 5842 5843 5842 5842 5843 5843 5843 5843 5842 5842 5841 5840 5839 5838 5836 5834 5831 5829 5826 5822 5819 5815 5811 5807 5803 5798 5794 5790 5786 5782 5778
5820 5824 5827 5830 5833 5835 5837 5838 5838 5838 5839 5840 5840 5840 5840 5840 5840 5841 5841 5841 5841 5841 5841 5840 5840 5839 5837 5835 5833 5831 5829 5826 5822 5819 5815 5812 5808 5803 5799 5795 5791 5787 5783 5779
5819 5823 5826 5829 5831 5833 5835 5836 5836 5836 5837 5838 5837 5837 5838 5838 5838 5839 5839 5840 5840 5840 5840 5839 5839 5838 5836 5835 5833 5831 5828 5825 5822 5819 5815 5812 5808 5804 5800 5796 5791 5787 5783 5780
5819 5823 5825 5827 5829 5831 5832 5833 5834 5834 5835 5835 5834 5835 5836 5836 5836 5837 5838 5838 5839 5839 5839 5838 5837 5836 5835 5834 5832 5830 5828 5825 5822 5819 5815 5812 5808 5804 5800 5796 5792 5788 5784 5780
5819 5822 5824 5826 5827 5828 5829 5830 5831 5831 5831 5831 5832 5833 5834 5833 5834 5835 5836 5837 5837 5837 5837 5837 5836 5835 5834 5833 5831 5829 5827 5824 5822 5818 5815 5811 5808 5804 5800 5796 5792 5788 5784 5780
5818 5821 5822 5824 5825 5826 5828 5828 5828 5828 5828 5828 5829 5830 5831 5831 5832 5833 5834 5835 5835 5836 5836 5835 5835 5834 5833 5832 5830 5828 5826 5824 5821 5818 5815 5811 5807 5804 5800 5796 5792 5788 5784 5780
5818 5820 5821 5822 5823 5824 5825 5826 5825 5825 5825 5825 5826 5829 5828 5828 5829 5830 5832 5832 5833 5834 5834 5834 5833 5832 5831 5830 5829 5827 5825 5823 5820 5817 5814 5810 5807 5803 5800 5796 5792 5788 5784 5781
5817 5819 5819 5821 5821 5821 5822 5822 5822 5822 5822 5822 5822 5827 5824 5825 5826 5828 5829 5830 5831 5831 5832 5832 5831 5831 5830 5828 5827 5825 5824 5821 5819 5816 5813 5810 5806 5803 5799 5795 5792 5788 5784 5781
5815 5817 5817 5818 5820 5819 5818 5818 5818 5818 5818 5818 5819 5824 5821 5822 5823 5824 5826 5827 5828 5829 5829 5829 5829 5829 5828 5827 5825 5824 5822 5820 5817 5814 5811 5808 5805 5802 5798 5795 5791 5787 5784 5780
5813 5813 5815 5815 5815 5814 5814 5814 5814 5814 5814 5815 5816 5817 5818 5818 5820 5821 5823 5824 5825 5826 5827 5827 5827 5826 5825 5824 5823 5822 5820 5818 5815 5813 5810 5807 5804 5800 5797 5794 5790 5786 5783 5779
5810 5810 5810 5810 5810 5810 5810 5810 5810 5810 5810 5811 5812 5813 5814 5815 5816 5818 5819 5821 5822 5823 5824 5824 5824 5824 5823 5822 5821 5819 5818 5816 5813 5811 5808 5805 5802 5799 5796 5792 5789 5785 5782 5778
5806 5806 5806 5806 5806 5805 5805 5806 5805 5805 5806 5807 5808 5810 5810 5811 5812 5814 5816 5817 5818 5819 5820 5821 5821 5820 5820 5819 5818 5817 5815 5813 5811 5808 5806 5803 5800 5797 5794 5791 5787 5784 5780 5776
5802 5802 5802 5802 5801 5800 5802 5802 5801 5801 5802 5803 5804 5806 5806 5807 5809 5810 5812 5813 5815 5816 5817 5817 5817 5817 5817 5816 5815 5814 5812 5810 5808 5806 5803 5801 5798 5795 5792 5788 5785 5782 5778 5774
5798 5798 5797 5797 5798 5797 5801 5797 5797 5797 5798 5799 5800 5802 5802 5804 5805 5807 5808 5810 5811 5812 5813 5813 5813 5813 5813 5812 5811 5810 5809 5807 5805 5803 5801 5798 5795 5792 5789 5786 5782 5779 5775 5772
5794 5793 5793 5793 5792 5793 5795 5793 5792 5793 5795 5795 5796 5797 5798 5800 5801 5803 5804 5805 5806 5807 5808 5809 5809 5809 5809 5808 5807 5806 5805 5804 5802 5800 5797 5795 5792 5789 5786 5783 5779 5776 5772 5769
5789 5788 5788 5788 5787 5789 5791 5789 5788 5790 5792 5791 5791 5793 5794 5795 5797 5799 5799 5800 5802 5803 5804 5804 5804 5804 5804 5804 5803 5802 5801 5800 5798 5796 5794 5791 5789 5786 5783 5779 5776 5772 5769 5766
5783 5782 5782 5782 5782 5784 5785 5784 5784 5787 5787 5786 5787 5788 5789 5790 5792 5793 5794 5795 5796 5797 5798 5799 5799 5799 5799 5799 5798 5797 5796 5795 5794 5792 5790 5787 5785 5782 5779 5776 5772 5769 5765 5762
5776 5775 5776 5775 5776 5780 5779 5778 5779 5779 5780 5780 5781 5782 5784 5785 5786 5787 5788 5789 5791 5792 5793 5793 5793 5793 5793 5793 5793 5792 5791 5790 5789 5787 5785 5783 5780 5778 5775 5771 5768 5765 5762 5758
5767 5768 5768 5769 5772 5772 5771 5771 5771 5772 5773 5774 5775 5776 5777 5778 5779 5781 5782 5783 5784 5785 5786 5787 5787 5787 5787 5787 5787 5787 5786 5785 5783 5782 5780 5778 5775 5773 5770 5767 5763 5760 5757 5754
5758 5758 5758 5760 5762 5763 5763 5763 5763 5765 5766 5767 5767 5769 5770 5771 5772 5774 5775 5776 5777 5778 5779 5780 5780 5781 5781 5781 5781 5780 5780 5779 5778 5776 5774 5772 5770 5767 5764 5761 5758 5755 5752 5748
5747 5747 5747 5748 5752 5752 5753 5753 5754 5756 5757 5758 5760 5761 5762 5763 5765 5766 5767 5769 5770 5771 5772 5773 5773 5774 5774 5774 5774 5774 5773 5772 5771 5770 5768 5766 5764 5761 5758 5756 5753 5750 5746 5743
5736 5735 5735 5736 5739 5738 5742 5743 5744 5746 5747 5749 5750 5752 5754 5755 5756 5758 5759 5760 5762 5763 5764 5765 5765 5766 5766 5767 5767 5767 5766 5765 5765 5763 5762 5760 5757 5755 5752 5749 5746 5743 5740 5737